Location: Arroyo de Fuente Vieja
(40.4902°N, 4.1175°W)
Time: 02:17:39
(UTC+00:00)

Cosmos 1932 - Pass Details

Date: 18 April 2024
Orbit: 940 x 989 km, 65.0° (Epoch: 28 May)

Event Time Altitude Azimuth Distance (km) Brightness Sun altitude
Rises 20:54:44 0° 326° (NW) 3,626 8.8 -20.5°
Reaches altitude 10° 20:57:17 10° 325° (NW) 2,672 7.8 -20.9°
Maximum altitude 21:03:31 77° 241° (WSW) 968 4.4 -21.9°
Enters shadow 21:06:00 38° 163° (SSE) 1,390 4.9 -22.2°
